KUIPER-00276

导读 | 豆包AI

KUIPER-00276是亚马逊柯伊伯(Kuiper)低轨宽带星座中的一颗卫星,于2026年2月12日由欧洲阿丽亚娜64型火箭在法属圭亚那库鲁航天中心发射,发射归属法国相关航天任务。 该卫星属于亚马逊打造的全球低轨卫星互联网星座,项目规划部署超过3000颗卫星,旨在提供全球范围的高速宽带互联服务,此次发射是阿丽亚娜6号火箭首次商业发射,也是柯伊伯星座单次发射卫星数量最多的任务之一。

基本信息
目录编号:
67794
目录名称:
KUIPER-00276
国际标识:
2026-030AG
轨道中心:
EARTH
卫星名称:
KUIPER-00276
卫星全名:
KUIPER-00276
卫星状态:
在轨 (已飞行30 天)
发射日期:
2026-02-12 UTC
国别 :
美国 (US)
星等 :
--
轨道信息
数据来源 国际轨道数据
星历时间: 2026-03-14T04:53:15+0800
18小时前
查看轨道信息
半长轴: 6853.47km
偏心率: 0.0019132
轨道倾角: 51.884°
近地点辐角 79.678°
升交点赤经 199.825°
平近点角 280.636°
近地点: 462.22km
远地点: 488.446km
周期: 94.108分钟
每日圈数: 15.301607
详细信息
使用方式:
暂无
2D轨道图
3D轨道图
轨道高度分析图
轨道倾角分析图
轨道综合分析图
查看轨道综合分析图